Regional Weather Roundup
Issued by NWS

Home | Current Version | Previous Version | Text Only | Print | Product List | Glossary Off
Versions: 1 2 3 4 5 6 7 8 9 10 11 12 13 14 15 16 17 18 19 20 21 22 23 24 25 26 27 28 29 30 31 32 33 34 35 36 37 38 39 40 41 42 43 44 45 46 47 48 49 50

000
ASUS43 KLOT 230503
RWRIL

ILLINOIS REGIONAL WEATHER ROUNDUP
NATIONAL WEATHER SERVICE CHICAGO/ROMEOVILLE IL
1200 AM CDT SAT JUL 23 2016

NOTE: "FAIR" INDICATES FEW OR NO CLOUDS BELOW 12,000 FEET WITH NO
SIGNIFICANT WEATHER AND/OR OBSTRUCTIONS TO VISIBILITY.

* THESE STATIONS ARE NOT UNDER NWS QUALITY CONTROL. THEY ALSO MAY NOT
  REPORT WEATHER SUCH AS PRECIPITATION OR FOG.

ILZ001-002-007-009-015-016-024-230600-
NORTHWEST ILLINOIS

CITY           SKY/WX    TMP DP  RH WIND       PRES   REMARKS
MOLINE         PTCLDY    80  75  84 CALM      29.99R HX  85
STERLING*      PTCLDY    77  76  96 CALM      30.01R
SAVANNA*       PTCLDY    78  76  94 CALM      29.99S HX  80
$$

ILZ003-004-008-010-011-017-018-230600-
NORTH CENTRAL ILLINOIS

CITY           SKY/WX    TMP DP  RH WIND       PRES   REMARKS
ROCKFORD       CLEAR     79  75  87 CALM      30.01R HX  83
FREEPORT*      CLEAR     74  73  96 CALM      30.03R
ROCHELLE*      PTCLDY    74  74  99 CALM      30.01S
DE KALB*       CLEAR     76  74  95 SW5       30.02S
$$

ILZ005-006-012>014-019>023-230600-
NORTHEAST ILLINOIS

CITY           SKY/WX    TMP DP  RH WIND       PRES   REMARKS
CHICAGO-OHARE  MOCLDY    82  76  81 CALM      29.98S HX  89
CHICAGO-MIDWAY MOCLDY    83  75  77 SW9       29.99R HX  90
AURORA         CLEAR     78  75  90 CALM      30.01R HX  81
LANSING*       CLOUDY    79  74  85 SW5       30.01R HX  82
WAUKEGAN       CLEAR     76  72  87 CALM      29.99R
DUPAGE AIRPORT CLEAR     78  74  87 S5        30.00R HX  81
WHEELING       CLEAR     83  75  77 CALM      29.99S HX  90
MORRIS*        PTCLDY    78  75  91 W3        29.99S HX  80
NORTHERLY ISL    N/A     83  72  69 S7          N/A  HX  88
$$

LMZ740>746-230600-
SOUTHERN LAKE MICHIGAN

STATION/POSITION SKY/WX   TEMP    WIND        PRES    VSBY  WAVE
                          AIR SEA DIR/SP/G                  HT/PER
                          (F)     (DEG/KT/KT) (MB)    (MI)  (FT/S)
SOUTHERN BUOY              74 73  200/  4/  4 1014.4          0
WILMETTE HARBOR            78 74  220/  4/  4   N/A           0
HARRISON CRIB              83     190/ 11/ 11   N/A
BURNHAM HARBOR             83     210/  3/  6   N/A
CALUMET HARBOR             81     180/  3/  5   N/A
BURNS HARBOR               80     190/  7/ 11 1015.9S
MICHIGAN CITY              80     150/  5/  6   N/A
MICHIGAN CITY 6N           78 78  170/  4/  6   N/A           0
ST. JOSEPH                 75 75  160/  2/  4 1015.0S         0
$$

ILZ025>027-034>036-040-047-049-050-058-095>099-230600-
WEST-CENTRAL ILLINOIS

CITY           SKY/WX    TMP DP  RH WIND       PRES   REMARKS
QUINCY         PTCLDY    78  75  90 S5        30.00F HX  81
GALESBURG*     CLOUDY    77  75  92 S5        30.00S
MACOMB*        CLOUDY    76  75  96 SW6       30.03S
JACKSONVILLE*  PTCLDY    78  75  92 S5        30.01S HX  80
PITTSFIELD*    PTCLDY    77  76  97 S3        30.01F
$$

ILZ028>032-037-038-041>044-048-051>054-059>061-230600-
CENTRAL ILLINOIS

CITY           SKY/WX    TMP DP  RH WIND       PRES   REMARKS
PONTIAC        PTCLDY    78  77  98 CALM      30.02S
BLOOMINGTON    PTCLDY    77  73  87 SW5       30.03F
DECATUR        PTCLDY    78  73  84 SW5       30.03S HX  81
PEORIA         CLOUDY    79  77  94 S6        30.01R HX  83
LACON*         MOCLDY    78  75  91 CALM      29.99S HX  80
LINCOLN*       MOCLDY    78  74  90 CALM      30.00F HX  80
SPRINGFIELD    PTCLDY    79  75  87 CALM      30.02S HX  83
TAYLORVILLE    PTCLDY    74  74  98 CALM      30.03R
$$

ILZ033-039-045-046-055>057-062-063-230600-
EAST-CENTRAL ILLINOIS

CITY           SKY/WX    TMP DP  RH WIND       PRES   REMARKS
CHAMPAIGN      PTCLDY    74  72  93 SW5       30.03F
MATTOON        PTCLDY    75  71  87 CALM      30.02F
PARIS*         CLEAR     72  72 100 CALM      30.03S FOG
$$

ILZ079-100>102-230600-
SOUTHWEST ILLINOIS

CITY           SKY/WX    TMP DP  RH WIND       PRES   REMARKS
ALTON          PTCLDY    73  73  98 CALM      30.02S
BELLEVILLE     PTCLDY    75  75 100 CALM      30.00F
CAHOKIA*       PTCLDY    77  73  87 S3        30.01F
SPARTA*        CLEAR     75  74  96 CALM      30.03S
$$

ILZ064>066-069>071-074>076-080>082-084>086-088>090-092>094-230600-
SOUTH-CENTRAL ILLINOIS

CITY           SKY/WX    TMP DP  RH WIND       PRES   REMARKS
CARBONDALE     MOCLDY    75  74  96 CALM      30.01F
CAIRO*         CLOUDY    77  77 100 CALM      30.01S FOG
EFFINGHAM*     PTCLDY    73  73 100 CALM      30.04S
MARION         MOCLDY    75  75 100 CALM      30.02S FOG
MT. VERNON     CLEAR     73  70  88 CALM      30.03S
CENTRALIA*     PTCLDY    74  74 100 CALM      30.01S
SALEM*         PTCLDY    75  73  93 CALM      30.02S
METROPOLIS*      N/A     76  76  98 CALM      30.01F FOG
$$

ILZ067-068-072-073-078-083-087-091-230600-
SOUTHEAST ILLINOIS

CITY           SKY/WX    TMP DP  RH WIND       PRES   REMARKS
LAWRENCEVILLE  CLEAR     76  75  97 CALM      30.02S FOG
FLORA*         CLEAR     75  74  96 CALM      30.02S FOG
FAIRFIELD*     CLEAR     74  74  99 CALM      30.01S FOG
HARRISBURG*    CLOUDY    76  76 100 CALM      30.01F FOG
ROBINSON*      FOG       72  72 100 CALM      30.03S VSB 3/4
CARMI*         CLEAR     75  75 100 CALM      30.01S FOG
$$

ABBREVIATIONS USED IN REMARKS
   TC - TEMPERATURE IN CELSIUS
  WCI - WIND CHILL INDEX
   HX - HEAT INDEX
  VSB - VISIBILITY
$$





USA.gov is the U.S. government's official web portal to all federal, state and local government web resources and services.